Flag for Germany Weather past 2 weeks in Unna, North Rhine-Westphalia, Germany

46 °F


Feels Like: 43 °F
Forecast: 58 / 67 °F
Wind: 7 mph from South

Location: Paderborn / Lippstadt

Current Time: Oct 5, 2015 at 2:30:15 AM

Latest Report: Oct 5, 2015 at 1:50 AM

Visibility: 10 mi

Pressure: 30.01 "Hg

Humidity: 100%

Dew point: 46 °F

Location of UnnaLocation

Historic Weather in Unna — Graph


Unna temperature yesterday

Maximum temperature yesterday: 64 °F (at 4:50 PM)
Minimum temperature yesterday: 48 °F (at 1:50 AM)
Average temperature yesterday: 55 °F

Past Weeks' High & Low Weather Summary

High64 °F (Oct 3, 2:20 PM)100% (Sep 20, 1:20 AM)30.66 "Hg (Sep 20, 1:20 AM)
Low34 °F (Oct 2, 6:20 AM)39% (Oct 2, 5:20 PM)29.53 "Hg (Sep 22, 4:50 PM)
Average51 °F79%30.21 "Hg
* Reported Sep 20 1:20 AM — Oct 5 1:20 AM, Unna, Weather by CustomWeather, © 2015

Note: Actual official high and low records may vary slightly from our data, if they occured in-between our weather recording intervals... More about our weather records


Unna weather history for previous 24 hours

Time TempWeatherWind HumidityBarometerVisibility
1:20 AM
Mon, Oct 5
48 °FPassing clouds.5 mph94%30.01 "HgN/A
12:50 AM50 °FClear.6 mph88%30.01 "Hg10 mi
12:20 AM52 °FClear.7 mph88%30.01 "Hg10 mi
11:50 PM
Sun, Oct 4
54 °FClear.7 mph82%30.01 "Hg10 mi
11:20 PM55 °FClear.8 mph77%30.04 "Hg10 mi
10:50 PM55 °FClear.5 mph77%30.04 "Hg10 mi
10:20 PM54 °FClear.5 mph82%30.04 "Hg10 mi
9:50 PM55 °FClear.7 mph77%30.01 "Hg10 mi
9:20 PM54 °FClear.6 mph88%30.01 "Hg10 mi
8:50 PM55 °FClear.8 mph77%30.01 "Hg10 mi
8:20 PM54 °FClear.2 mph82%30.01 "Hg10 mi
7:50 PM54 °FSunny.5 mph82%30.01 "Hg10 mi
7:20 PM57 °FPassing clouds.3 mph72%30.01 "HgN/A
6:50 PM59 °FSunny.5 mph72%30.01 "Hg10 mi
6:20 PM61 °FPassing clouds.8 mph68%30.01 "HgN/A
5:50 PM63 °FPassing clouds.9 mph59%30.01 "HgN/A
5:20 PM64 °FPassing clouds.3 mph60%30.01 "HgN/A
4:50 PM64 °FPassing clouds.2 mph60%30.01 "HgN/A
4:20 PM63 °FPassing clouds.2 mph64%30.01 "HgN/A
3:50 PM63 °FSunny.2 mph68%30.01 "Hg10 mi
3:20 PM61 °FSunny.2 mph72%30.01 "Hg10 mi
2:50 PM59 °FSunny.2 mph72%30.01 "Hg10 mi
2:20 PM59 °FSunny.2 mph72%30.01 "Hg10 mi
1:50 PM59 °FSunny.1 mph77%30.04 "Hg10 mi
1:20 PM59 °FPassing clouds.3 mph72%30.04 "HgN/A
12:50 PM59 °FSunny.2 mph72%30.04 "Hg10 mi
12:20 PM59 °FSunny.2 mph68%30.04 "Hg10 mi
11:50 AM59 °FPassing clouds.3 mph72%30.04 "HgN/A
11:20 AM59 °FPassing clouds.3 mph72%30.04 "HgN/A
10:50 AM57 °FPassing clouds.5 mph72%30.04 "HgN/A
10:20 AM55 °FSunny.6 mph82%30.04 "Hg10 mi
9:50 AM55 °FSunny.6 mph77%30.01 "Hg10 mi
9:20 AM54 °FPassing clouds.3 mph82%30.01 "HgN/A
8:50 AM52 °FSunny.2 mph82%30.01 "Hg10 mi
8:20 AM50 °FClear.2 mph82%30.01 "Hg10 mi
7:50 AM50 °FClear.2 mph82%29.98 "Hg10 mi
7:20 AM48 °FClear.1 mph87%29.98 "Hg10 mi
6:50 AM50 °FClear.2 mph82%29.98 "Hg10 mi
6:20 AM50 °FClear.3 mph82%29.98 "Hg10 mi
5:50 AM50 °FClear.2 mph82%29.98 "Hg10 mi
5:20 AM48 °FClear.1 mph87%29.98 "Hg10 mi
4:50 AM48 °FClear.2 mph87%29.98 "Hg10 mi
4:20 AM50 °FPassing clouds.3 mph88%29.98 "HgN/A
3:50 AM48 °FClear.2 mph94%29.98 "Hg10 mi
3:20 AM48 °FClear.2 mph87%29.98 "Hg10 mi
2:50 AM52 °FClear.1 mph82%29.98 "Hg10 mi
2:20 AM48 °FClear.2 mph87%29.98 "Hg10 mi
Weather by CustomWeather, © 2015

See weather overviewHow to use our weather pages